Regional Weather Roundup
Issued by NWS

Home | Current Version | Previous Version | Graphics & Text | Print | Product List | Glossary On
Versions: 1 2 3 4 5 6 7 8 9 10 11 12 13 14 15 16 17 18 19 20 21 22 23 24 25 26 27 28 29 30 31 32 33 34 35 36 37 38 39 40 41 42 43 44 45 46 47 48 49 50
000
ASUS43 KLSX 202210
RWRMO

WEATHER SUMMARY FOR MISSOURI
NATIONAL WEATHER SERVICE SPRINGFIELD MO
500 PM CDT SUN MAY 20 2018

NOTE: "FAIR" INDICATES FEW OR NO CLOUDS BELOW 12,000 FEET WITH NO
       SIGNIFICANT WEATHER AND/OR OBSTRUCTIONS TO VISIBILITY.
       CURRENT SKY AND/OR WEATHER CONDITIONS ARE NOT AVAILABLE FOR
       CHILLICOTHE AND FARMINGTON.

MOZ001>031-035>038-043-044-053-054-202300-
...NORTHERN AND WESTERN MISSOURI...

CITY           SKY/WX    TMP DP  RH WIND       PRES   REMARKS
KANSAS CTY INT RAIN      68  64  87 CALM      30.05S FOG
KANSAS C DTWN  LGT RAIN  69  64  84 NW6       30.03F
LEE`S SUMMIT   PTSUNNY   76  67  73 NW7       30.04F
ST JOSEPH      LGT RAIN  68  65  90 S7        30.05R
CHILLICOTHE      N/A     74  64  71 CALM      30.05F
KIRKSVILLE     CLOUDY    76  62  62 CALM      30.06F

$$
MOZ066>068-077>081-088>096-101>105-202300-
...SOUTHWEST MISSOURI...

CITY           SKY/WX    TMP DP  RH WIND       PRES   REMARKS
SPRINGFIELD    CLOUDY    80  67  64 S7        30.00F
JOPLIN         LGT RAIN  67  65  93 SE8       30.02F
BRANSON        PTSUNNY   82  70  65 E8        30.00F

$$
MOZ032>034-039>042-045>050-055>058-069>072-202300-
...CENTRAL MISSOURI...

CITY           SKY/WX    TMP DP  RH WIND       PRES   REMARKS
COLUMBIA       CLOUDY    78  65  63 SE9       30.04R
JEFFERSON CITY SUNNY     80  65  59 SE5       30.02S
ROLLA          SUNNY     78  65  63 E8        30.05S
SEDALIA        MOSUNNY   80  67  64 E7        30.03F
WHITEMAN AFB   PTSUNNY   78  64  60 CALM      29.97F
WARRENSBURG    CLOUDY    77  63  61 NW3       30.02S

$$
MOZ051-052-059>065-202300-
...EAST CENTRAL MISSOURI...

CITY           SKY/WX    TMP DP  RH WIND       PRES   REMARKS
ST LOUIS INTL  PTSUNNY   79  66  64 E7        30.04F
SPIRIT OF STL  MOSUNNY   81  64  56 SE5       30.03F
ST CHARLES     SUNNY     79  68  69 SE9       30.03F

$$
MOZ072>076-082>087-097>100-106>115-202300-
...SOUTH CENTRAL AND SOUTHEAST MISSOURI...

CITY           SKY/WX    TMP DP  RH WIND       PRES   REMARKS
CAPE GIRARDEAU FAIR      74  67  78 E7        30.04F
FARMINGTON     CLOUDY    81  67  62 E7        30.06S
POPLAR BLUFF   LGT RAIN  77  73  87 E3        30.01F
WEST PLAINS    SUNNY     81  67  62 E9        30.04F

$$




USA.gov is the U.S. government's official web portal to all federal, state and local government web resources and services.